О сайте

Добрый день Уважаемые посетители сайта!
Этот ресурс создан с целью предоставить любителям малой авиации максимум полезной информации и возможностей по обмену различными сведениями об аэродромах и интересных маршрутах. Для этого на сайте есть странички Аэродромы - информация из баз АОПА (в том виде как она предоставляется к свободному использованию) и Каталог аэродромов и аэроклубов , с различными вариантами поиска и сортировки, возможностью найти трансфер, арендовать авто или забронировать номер в гостинице on-line, а так же возможностями :
- для аэроклубов - добавить какую либо дополнительную информацию в страничку , посвященную аэроклубу
(чтобы добавить информацию необходимо зарегистрироваться, и подтвердить свою принадлежность к какому либо аэроклубу)
- для посетителей - поделиться каким либо интересным маршрутом, нарисовать его на карте, описать достопримечательности, загрузить фотографии и поставить в соответствие с каким либо клубом или аэродромом.
(чтобы добавить информацию необходимо зарегистрироваться)

Аэроклубы / Аэродромы в Москве

Карта аэродромов в Москве по коду ИКАО

Список аэродромов Москвы

Javascript is required to view this map.

Авиационная погода в Москва - Домодедово

Регион: 
Погода METAR: 
UUDD 311000Z 35008MPS 1100 1000N R32L/1200U SN BKN007 OVC020 M04/M06 Q1010 R32L/590237 TEMPO 0500 +SHSN BKN012CB
Время наблюдения: 
2020-03-31T10:00:00Z
Температура C: 
-4.0
Точка росы: 
-6.0
Направление ветра: 
350
Скорость ветра: 
16
Метеорологическая видимость: 
0.68
Явления погоды: 
SN
Условия полета: 
LIFR
Аэропорт подробнее: 

Авиационная погода в Москва - Шереметьево

Регион: 
Погода METAR: 
UUEE 311000Z 01006MPS 330V050 2200 -SN OVC017 M04/M05 Q1012 R06R/590245 R06L/550240 TEMPO 0700 +SHSN BKN011CB
Время наблюдения: 
2020-03-31T10:00:00Z
Температура C: 
-4.0
Точка росы: 
-5.0
Направление ветра: 
10
Скорость ветра: 
12
Метеорологическая видимость: 
1.37
Явления погоды: 
-SN
Условия полета: 
IFR
Аэропорт подробнее: 

Авиационная погода в Москва - Внуково

Регион: 
Погода METAR: 
UUWW 311000Z 35006MPS 1100 0900SW R01/0900D +SN OVC009 M04/M06 Q1012 WS R01 R01/550340 TEMPO 0600 +SHSN BKN020CB
Время наблюдения: 
2020-03-31T10:00:00Z
Температура C: 
-4.0
Точка росы: 
-6.0
Направление ветра: 
350
Скорость ветра: 
12
Метеорологическая видимость: 
0.68
Явления погоды: 
+SN
Условия полета: 
LIFR
Аэропорт подробнее: 

Аэроклубы и аэродромы по регионам Юга России


Найти трансфер

С помощью этой формы Вы можете найти трансфер из аэропорта в город, аэропорт или вокзал: